Flag for Pakistan Weather past 2 weeks in Karachi, Sindh, Pakistan

Now
79 °F

Partly sunny.


Feels Like: 81 °F
Forecast: 77 / 90 °F
Wind: 6 mph from Southwest

Location: Karachi Airport

Current Time: Mar 28, 2015 at 7:14:34 AM

Latest Report: Mar 28, 2015 at 6:55 AM


Visibility: 4 mi

Pressure: 29.86 "Hg

Humidity: 65%

Dew point: 66 °F

Location of KarachiLocation

Historic Weather in Karachi — Graph

°F

Karachi temperature yesterday

Maximum temperature yesterday: 100 °F (at 1:25 PM)
Minimum temperature yesterday: 77 °F (at 6:25 AM)
Average temperature yesterday: 88 °F

Past Weeks' High & Low Weather Summary

 TemperatureHumidityPressure
High102 °F (Mar 23, 2:25 PM)89% (Mar 25, 3:30 AM)30.15 "Hg (Mar 25, 3:30 AM)
Low59 °F (Mar 15, 6:55 AM)13% (Mar 23, 12:55 PM)29.80 "Hg (Mar 24, 3:25 PM)
Average80 °F50%29.93 "Hg
* Reported Mar 13 5:55 AM — Mar 28 5:55 AM, Karachi, Weather by CustomWeather, © 2015

Note: Actual official high and low records may vary slightly from our data, if they occured in-between our weather recording intervals... More about our weather records

Advertising

Karachi weather history for previous 24 hours

 ConditionsComfort  
Time TempWeatherWind HumidityBarometerVisibility
5:55 AM
Sat, Mar 28
79 °FPassing clouds.6 mph54%29.83 "Hg4 mi
4:55 AM79 °FPassing clouds.5 mph54%29.83 "Hg4 mi
4:25 AM79 °FPassing clouds.6 mph51%29.83 "Hg4 mi
3:55 AM79 °FClear.6 mph51%29.83 "Hg4 mi
3:25 AM79 °FClear.5 mph45%29.83 "Hg4 mi
2:55 AM81 °FClear.3 mph42%29.86 "Hg4 mi
2:25 AM81 °FClear.3 mph42%29.86 "Hg4 mi
1:55 AM82 °FClear.3 mph37%29.86 "Hg4 mi
1:25 AM82 °FClear.6 mph37%29.86 "Hg4 mi
12:55 AM82 °FClear.6 mph40%29.86 "Hg4 mi
12:25 AM82 °FClear.3 mph42%29.86 "Hg4 mi
11:55 PM
Fri, Mar 27
82 °FClear.5 mph45%29.89 "Hg4 mi
11:25 PM82 °FClear.5 mph45%29.89 "Hg4 mi
10:55 PM82 °FClear.6 mph48%29.89 "Hg4 mi
10:25 PM81 °FClear.5 mph54%29.89 "Hg4 mi
9:55 PM84 °FClear.5 mph48%29.92 "Hg4 mi
9:25 PM84 °FPassing clouds.7 mph51%29.89 "Hg4 mi
8:55 PM88 °FPassing clouds.12 mph38%29.89 "Hg3 mi
8:25 PM88 °FPassing clouds.12 mph38%29.89 "Hg3 mi
7:55 PM90 °FHaze.8 mph31%29.86 "Hg3 mi
7:25 PM90 °FHaze.8 mph31%29.86 "Hg3 mi
6:55 PM91 °FHaze.6 mph38%29.86 "Hg3 mi
6:25 PM91 °FClear.10 mph38%29.83 "Hg4 mi
5:55 PM93 °FClear.13 mph34%29.83 "Hg4 mi
5:25 PM95 °FClear.14 mph28%29.83 "Hg4 mi
4:55 PM95 °FClear.12 mph26%29.83 "Hg4 mi
4:25 PM97 °FClear.17 mph25%29.83 "Hg4 mi
3:55 PM97 °FClear.14 mph25%29.83 "Hg4 mi
3:25 PM99 °FClear.16 mph24%29.86 "Hg4 mi
2:55 PM100 °FPassing clouds.17 mph22%29.86 "Hg4 mi
2:25 PM100 °FPassing clouds.7 mph24%29.86 "Hg4 mi
1:55 PM100 °FScattered clouds.7 mph21%29.86 "Hg4 mi
1:25 PM100 °FPassing clouds.7 mph21%29.89 "Hg4 mi
12:55 PM99 °FClear.6 mph22%29.92 "Hg4 mi
12:25 PM99 °FClear.3 mph22%29.92 "Hg4 mi
11:55 AM97 °FClear.5 mph23%29.95 "Hg4 mi
11:25 AM97 °FClear.No wind23%29.95 "Hg4 mi
10:55 AM97 °FClear.7 mph25%29.95 "Hg4 mi
10:25 AM93 °FClear.8 mph26%29.95 "Hg4 mi
9:25 AM88 °FHaze.6 mph33%29.95 "Hg3 mi
8:55 AM86 °FHaze.5 mph38%29.95 "Hg3 mi
7:55 AM81 °FHaze.5 mph48%29.95 "Hg2 mi
7:25 AM77 °FHaze.3 mph54%29.95 "Hg2 mi
Weather by CustomWeather, © 2015

See weather overviewHow to use our weather pages